COSMOS 642

Satellite information

Favourite Embed

Satellite Type and Status

PAYLOADIN ORBIT

Key statistics

Satellite COSMOS 642 at a glance.

Uptime

18870

Days in orbit

Revolutions

≈ 12.7

Per day

Orbit

LEO

Low Earth Orbit

Inclination

74.0

Latest

Satellite identification and parameters

Extended collection of information and parameters for COSMOS 642.

Object identification

Identified? True

Debris? False

Object name: COSMOS 642

International designator: 1974-024B

Object number (NORAD): 7266

Object ID (CCSDS): 7266

Country: COMMONWEALTH OF INDEPENDENT STATES (CIS)

Current information (Y/N): Y

RCS size: MEDIUM

Orbital parameters

Period: 113.759 minutes

Inclination: 74.0154 deg

SMA: 7777.08 km

Apoapsis: 1478.848 km

Periapsis: 1319.043 km

RAAN: 155.5252 deg

Eccentricy: 0.0102741

Argument of periapsis: 82.9036 deg

Mean anomaly: 348.6084 deg

Mean motion: 12.65837273 rev/day

Mean motion (dot): -0.00000024 rev/day2

B* drag term: -0.00004152956 1/REarth

Two-line elements (TLE)

Creation date: Dec. 21, 2025, 3:42 a.m.

Reference frame: TEME

Reference center: EARTH

Epoch: Dec. 20, 2025, 8:54 p.m. UTC

TLE line 0: 0 COSMOS 642

TLE line 1: 1 07266U 74024B 25354.87140375 -.00000024 00000-0 -41530-4 0 9997

TLE line 2: 2 07266 74.0154 155.5252 0102741 82.9036 348.6084 12.65837273387142

Live tracking on map

Real-time ground track for satellite COSMOS 642.

In-orbit conjunctions

There are no conjunctions computed for COSMOS 642, at the moment. Check back to stay up to date, as we update our databases every day.

Go to all conjunctions

Associated space launch

Military communications satellites

COSMOS 642 was lifted into orbit during the mission ‘Kosmos-3M | Strela-1M 65-72’, on board a Kosmos-3M space rocket.

The launch took place on April 23, 1974, 2:14 p.m. from 132/2.

For more information about the launch, click the button.

Launch to space Kosmos-3M | Strela-1M 65-72
Kosmos-3M | Strela-1M 65-72

Agency: N/A

Status: Launch Successful

Launch date: April 23, 1974, 2:14 p.m. UTC

Rocket: Kosmos-3M

Launch pad: 132/2

Location: Plesetsk Cosmodrome, Russian Federation

...

Latest news about this satellite

There are no fresh news available about this satellite. Check back as we update our databases every day.


Newsletter sign-up

Weekly statistics, charts and insights to help you stay on top of the space industry.